Flag for Germany Weather past 2 weeks in Bramsche, Lower Saxony, Germany

Now
41 °F

Passing clouds.


Feels Like: 41 °F
Forecast: 40 / 59 °F
Wind: 1 mph from Northwest

Location: Muenster / Osnabrueck

Current Time: Apr 22, 2015 at 1:57:08 AM

Latest Report: Apr 22, 2015 at 1:00 AM


Visibility: 16 mi

Pressure: 30.47 "Hg

Humidity: 86%

Dew point: 37 °F

Location of BramscheLocation

Historic Weather in Bramsche — Graph

°F

Bramsche temperature yesterday

Maximum temperature yesterday: 68 °F (at 4:00 PM)
Minimum temperature yesterday: 38 °F (at 6:00 AM)
Average temperature yesterday: 53 °F

Past Weeks' High & Low Weather Summary

 TemperatureHumidityPressure
High73 °F (Apr 15, 4:00 PM)100% (Apr 7, 5:00 AM)30.63 "Hg (Apr 7, 5:00 AM)
Low29 °F (Apr 7, 6:00 AM)29% (Apr 21, 4:00 PM)29.92 "Hg (Apr 15, 7:00 PM)
Average50 °F66%30.27 "Hg
* Reported Apr 7 1:00 AM — Apr 22 1:00 AM, Bramsche, Weather by CustomWeather, © 2015

Note: Actual official high and low records may vary slightly from our data, if they occured in-between our weather recording intervals... More about our weather records

Advertising

Bramsche weather history for previous 24 hours

 ConditionsComfort  
Time TempWeatherWind HumidityBarometerVisibility
1:00 AM
Wed, Apr 22
41 °FPassing clouds.1 mph86%30.47 "Hg16 mi
12:00 AM42 °FPassing clouds.2 mph86%30.47 "Hg16 mi
11:00 PM
Tue, Apr 21
45 °FOvercast.6 mph81%30.48 "Hg16 mi
10:00 PM47 °FPassing clouds.6 mph76%30.46 "Hg16 mi
9:00 PM52 °FPassing clouds.6 mph66%30.43 "Hg16 mi
8:00 PM58 °FOvercast.6 mph40%30.41 "Hg25 mi
7:00 PM62 °FOvercast.5 mph31%30.40 "Hg25 mi
6:00 PM64 °FOvercast.7 mph36%30.40 "Hg25 mi
5:00 PM66 °FOvercast.7 mph34%30.40 "Hg25 mi
4:00 PM68 °FOvercast.6 mph29%30.41 "Hg25 mi
3:00 PM67 °FOvercast.6 mph33%30.42 "Hg25 mi
2:00 PM67 °FOvercast.5 mph30%30.42 "Hg25 mi
1:00 PM65 °FOvercast.3 mph35%30.44 "Hg25 mi
12:00 PM61 °FOvercast.3 mph38%30.45 "Hg22 mi
11:00 AM57 °FPartly sunny.3 mph52%30.45 "Hg19 mi
10:00 AM53 °FPartly sunny.2 mph58%30.45 "Hg12 mi
9:00 AM48 °FPartly sunny.1 mph78%30.45 "Hg9 mi
8:00 AM42 °FPartly sunny.1 mph88%30.44 "Hg7 mi
7:00 AM39 °FFog.1 mph95%30.43 "Hg2 mi
6:00 AM38 °FFog.2 mph95%30.42 "Hg2 mi
5:00 AM39 °FFog.1 mph94%30.42 "Hg12 mi
4:00 AM41 °FOvercast.1 mph93%30.42 "Hg16 mi
3:00 AM43 °FPassing clouds.1 mph91%30.41 "Hg22 mi
2:00 AM45 °FPassing clouds.3 mph84%30.41 "Hg22 mi
1:00 AM47 °FPassing clouds.1 mph72%30.40 "Hg22 mi
Weather by CustomWeather, © 2015

See weather overviewHow to use our weather pages